Home   Weather   Göteborgs Vasa   Past weeks
Flag for Sweden

Past Weather in Göteborgs Vasa, Sweden — Yesterday and Last 2 Weeks

Currently: 59 °F. Passing clouds. (Weather station: Gothenburg / Landvetter, Sweden). See more current weather

Past Weather in Göteborgs Vasa — Graph

°F

Göteborgs Vasa Temperature Yesterday

Maximum temperature yesterday: 64 °F (at 9:20 am)
Minimum temperature yesterday: 55 °F (at 12:50 am)
Average temperature yesterday: 61 °F

High & Low Weather Summary for the Past Weeks

 TemperatureHumidityPressure
High73 °F (May 30, 12:50 pm)100% (May 29, 6:20 am)30.33 "Hg (May 29, 6:20 am)
Low45 °F (May 28, 11:50 pm)33% (May 30, 12:20 pm)29.71 "Hg (Jun 12, 7:50 am)
Average60 °F65%30.15 "Hg
* Reported May 28 7:20 pm — Jun 12 7:50 pm, Göteborgs Vasa. Weather by CustomWeather, © 2021

Note: Actual official high and low records may vary slightly from our data, if they occured in-between our weather recording intervals... More about our weather records

Göteborgs Vasa Weather History for the Previous 24 Hours

Scroll right to see more
 ConditionsComfort  
Time TempWeatherWind HumidityBarometerVisibility
7:50 pm
Sat, Jun 12
59 °FSunny.16 mph59%29.80 "Hg10 mi
7:20 pm59 °FSunny.16 mph59%29.80 "Hg10 mi
6:50 pm61 °FSunny.17 mph55%29.80 "Hg10 mi
6:20 pm61 °FSunny.15 mph55%29.77 "Hg10 mi
5:50 pm61 °FSunny.17 mph52%29.77 "Hg10 mi
5:20 pm61 °FSunny.18 mph52%29.77 "Hg10 mi
4:50 pm61 °FPassing clouds.18 mph55%29.77 "HgN/A
4:20 pm63 °FScattered clouds.21 mph52%29.77 "HgN/A
3:50 pm61 °FPassing clouds.20 mph55%29.74 "HgN/A
3:20 pm61 °FPassing clouds.20 mph55%29.74 "HgN/A
2:50 pm59 °FScattered clouds.20 mph55%29.74 "HgN/A
2:20 pm61 °FScattered clouds.18 mph52%29.74 "HgN/A
1:50 pm59 °FPassing clouds.18 mph55%29.74 "HgN/A
1:20 pm59 °FScattered clouds.18 mph59%29.74 "HgN/A
12:50 pm59 °FPartly sunny.17 mph59%29.74 "HgN/A
12:20 pm57 °FPartly sunny.18 mph63%29.74 "HgN/A
11:50 am57 °FPartly sunny.16 mph63%29.74 "HgN/A
11:20 am57 °FPartly sunny.16 mph63%29.74 "HgN/A
10:50 am59 °FScattered clouds.15 mph63%29.71 "HgN/A
10:20 am57 °FPartly sunny.17 mph67%29.71 "HgN/A
9:50 am55 °FPartly sunny.18 mph72%29.71 "HgN/A
9:20 am57 °FPartly sunny.15 mph72%29.71 "HgN/A
8:50 am57 °FMostly cloudy.15 mph77%29.71 "HgN/A
8:20 am54 °FPartly sunny.13 mph82%29.71 "HgN/A
7:50 am54 °FPartly sunny.15 mph82%29.71 "HgN/A
7:20 am54 °FPartly sunny.16 mph82%29.74 "HgN/A
6:50 am54 °FMostly cloudy.15 mph88%29.74 "HgN/A
6:20 am54 °FPartly sunny.16 mph88%29.74 "HgN/A
5:50 am54 °FMostly cloudy.14 mph88%29.74 "HgN/A
5:20 am54 °FDrizzle. Mostly cloudy.14 mph94%29.74 "Hg4 mi
4:50 am54 °FOvercast.13 mph94%29.74 "HgN/A
4:20 am54 °FMostly cloudy.13 mph88%29.77 "HgN/A
3:50 am54 °FMostly cloudy.14 mph94%29.77 "HgN/A
3:20 am55 °FMostly cloudy.14 mph88%29.77 "HgN/A
2:50 am55 °FMostly cloudy.13 mph88%29.77 "HgN/A
2:20 am55 °FPartly cloudy.13 mph94%29.77 "HgN/A
1:50 am55 °FMostly cloudy.13 mph94%29.80 "HgN/A
1:20 am57 °FLow clouds.14 mph88%29.80 "HgN/A
12:50 am57 °FMostly cloudy.12 mph94%29.80 "Hg5 mi
12:20 am59 °FMostly cloudy.10 mph94%29.80 "HgN/A
11:50 pm
Fri, Jun 11
59 °FLight rain. Partly cloudy.12 mph94%29.83 "Hg4 mi
11:20 pm59 °FOvercast.13 mph94%29.83 "HgN/A
10:50 pm61 °FMostly cloudy.13 mph94%29.83 "Hg4 mi
10:20 pm61 °FFog.12 mph94%29.83 "Hg4 mi
9:50 pm61 °FFog.12 mph94%29.83 "Hg3 mi
9:20 pm61 °FFog.12 mph94%29.83 "Hg2 mi
8:50 pm61 °FFog.14 mph94%29.86 "Hg3 mi
8:20 pm61 °FHeavy rain. Broken clouds.14 mph94%29.86 "Hg3 mi
Weather by CustomWeather, © 2021

See weather overview